When you browse on this site, cookies collect data to enhance your experience and personalize the content and advertising you see.
Visit our Privacy Policy to learn more. By continuing to use the site, you agree to this use of cookies and data.
  • In Slovakia
  • List of Countries
  • For 7 days
  • Water Temperature
  • Weather Map
  • Weather Widgets
  • user-avatar
    Login

    Hourly Weather La Rioja

    Today, 31 May, Sunday

    Time Temperature Precipitation Wind Pressure Humidity
    00:00 +9°C° 0 mm 2 mps 720 mmHg 41%
    01:00 +8°C° 0 mm 2 mps 720 mmHg 44%
    02:00 +8°C° 0 mm 1 mps 721 mmHg 47%
    03:00 +8°C° 0 mm 1 mps 720 mmHg 49%
    04:00 +7°C° 0 mm 1 mps 720 mmHg 51%
    05:00 +7°C° 0 mm 1 mps 719 mmHg 53%
    06:00 +8°C° 0 mm 1 mps 719 mmHg 52%
    07:00 +8°C° 0 mm 1 mps 720 mmHg 51%
    08:00 +9°C° 0 mm 1 mps 720 mmHg 50%
    09:00 +11°C° 0 mm 1 mps 720 mmHg 45%
    10:00 +12°C° 0 mm 1 mps 720 mmHg 41%
    11:00 +14°C° 0 mm 1 mps 720 mmHg 36%
    12:00 +15°C° 0 mm 1 mps 719 mmHg 35%
    13:00 +15°C° 0 mm 2 mps 719 mmHg 34%
    14:00 +16°C° 0 mm 2 mps 718 mmHg 33%
    15:00 +16°C° 0 mm 2 mps 718 mmHg 34%
    16:00 +15°C° 0 mm 2 mps 718 mmHg 35%
    17:00 +15°C° 0 mm 1 mps 718 mmHg 37%
    18:00 +13°C° 0 mm 1 mps 718 mmHg 42%
    19:00 +11°C° 0 mm 1 mps 718 mmHg 47%
    20:00 +9°C° 0 mm 0 mps 719 mmHg 51%
    21:00 +8°C° 0 mm 0 mps 719 mmHg 53%
    22:00 +8°C° 0 mm 0 mps 719 mmHg 54%
    23:00 +7°C° 0 mm 0 mps 719 mmHg 56%

    Tomorrow, 1 June, Monday

    Time Temperature Precipitation Wind Pressure Humidity
    00:00 +7°C° 0 mm 0 mps 719 mmHg 58%
    01:00 +7°C° 0 mm 0 mps 719 mmHg 60%
    02:00 +7°C° 0 mm 0 mps 719 mmHg 62%
    03:00 +7°C° 0 mm 0 mps 719 mmHg 62%
    04:00 +8°C° 0 mm 1 mps 719 mmHg 62%
    05:00 +8°C° 0 mm 1 mps 718 mmHg 63%
    06:00 +8°C° 0 mm 1 mps 719 mmHg 61%
    07:00 +9°C° 0 mm 1 mps 719 mmHg 59%
    08:00 +9°C° 0 mm 1 mps 720 mmHg 57%
    09:00 +12°C° 0 mm 1 mps 720 mmHg 50%
    10:00 +14°C° 0 mm 1 mps 720 mmHg 43%
    11:00 +16°C° 0 mm 1 mps 720 mmHg 37%
    12:00 +18°C° 0 mm 1 mps 719 mmHg 35%
    13:00 +19°C° 0 mm 1 mps 718 mmHg 33%
    14:00 +20°C° 0 mm 1 mps 717 mmHg 31%
    15:00 +19°C° 0 mm 1 mps 717 mmHg 33%
    16:00 +19°C° 0 mm 1 mps 717 mmHg 35%
    17:00 +18°C° 0 mm 1 mps 717 mmHg 37%
    18:00 +15°C° 0 mm 1 mps 717 mmHg 44%
    19:00 +13°C° 0 mm 1 mps 717 mmHg 52%
    20:00 +11°C° 0 mm 1 mps 717 mmHg 59%
    21:00 +10°C° 0 mm 1 mps 717 mmHg 60%
    22:00 +10°C° 0 mm 1 mps 717 mmHg 60%
    23:00 +10°C° 0 mm 1 mps 717 mmHg 61%

    Day after tomorrow, 2 June, Tuesday

    Time Temperature Precipitation Wind Pressure Humidity
    00:00 +9°C° 0 mm 1 mps 717 mmHg 62%
    01:00 +9°C° 0 mm 1 mps 717 mmHg 63%
    02:00 +9°C° 0 mm 1 mps 716 mmHg 63%
    03:00 +9°C° 0 mm 1 mps 716 mmHg 65%
    04:00 +8°C° 0 mm 1 mps 716 mmHg 66%
    05:00 +8°C° 0 mm 1 mps 716 mmHg 67%
    06:00 +8°C° 0 mm 1 mps 716 mmHg 64%
    07:00 +9°C° 0 mm 1 mps 716 mmHg 62%
    08:00 +9°C° 0 mm 1 mps 716 mmHg 59%
    09:00 +12°C° 0 mm 1 mps 716 mmHg 52%
    10:00 +14°C° 0 mm 1 mps 716 mmHg 44%
    11:00 +16°C° 0 mm 2 mps 716 mmHg 37%
    12:00 +17°C° 0 mm 2 mps 715 mmHg 36%
    13:00 +18°C° 0 mm 2 mps 714 mmHg 34%
    14:00 +19°C° 0 mm 2 mps 713 mmHg 33%
    15:00 +20°C° 0 mm 1 mps 712 mmHg 35%
    16:00 +19°C° 0 mm 1 mps 711 mmHg 37%
    17:00 +19°C° 0 mm 1 mps 711 mmHg 40%
    18:00 +16°C° 0 mm 1 mps 711 mmHg 45%
    19:00 +14°C° 0 mm 1 mps 710 mmHg 50%
    20:00 +12°C° 0 mm 1 mps 710 mmHg 55%
    21:00 +12°C° 0 mm 1 mps 710 mmHg 56%
    22:00 +11°C° 0 mm 1 mps 710 mmHg 57%
    23:00 +11°C° 0 mm 1 mps 710 mmHg 59%

    3 June, Wednesday

    Time Temperature Precipitation Wind Pressure Humidity
    00:00 +10°C° 0 mm 1 mps 709 mmHg 61%
    01:00 +10°C° 0 mm 1 mps 709 mmHg 63%
    02:00 +9°C° 0 mm 1 mps 709 mmHg 65%
    03:00 +9°C° 0 mm 1 mps 708 mmHg 66%
    04:00 +9°C° 0 mm 1 mps 708 mmHg 67%
    05:00 +8°C° 0 mm 1 mps 707 mmHg 68%
    06:00 +9°C° 0 mm 1 mps 707 mmHg 63%
    07:00 +10°C° 0 mm 1 mps 708 mmHg 57%
    08:00 +11°C° 0 mm 1 mps 708 mmHg 52%
    09:00 +13°C° 0 mm 2 mps 708 mmHg 47%
    10:00 +15°C° 0 mm 2 mps 709 mmHg 42%
    11:00 +18°C° 0 mm 3 mps 709 mmHg 37%
    12:00 +18°C° 0 mm 4 mps 709 mmHg 37%
    13:00 +19°C° 0 mm 4 mps 709 mmHg 37%
    14:00 +19°C° 0 mm 5 mps 708 mmHg 36%
    15:00 +19°C° 0 mm 5 mps 709 mmHg 41%
    16:00 +17°C° 0 mm 6 mps 709 mmHg 45%
    17:00 +17°C° 0 mm 7 mps 710 mmHg 49%
    18:00 +16°C° 0 mm 7 mps 711 mmHg 52%
    19:00 +15°C° 0 mm 8 mps 712 mmHg 55%
    20:00 +12°C° 0 mm 8 mps 713 mmHg 57%
    21:00 +11°C° 0.5 mm 8 mps 714 mmHg 65%
    22:00 +10°C° 0.5 mm 9 mps 714 mmHg 74%
    23:00 +8°C° 0.5 mm 9 mps 715 mmHg 82%

    4 June, Thursday

    Time Temperature Precipitation Wind Pressure Humidity
    00:00 +9°C° 1.1 mm 8 mps 715 mmHg 84%
    01:00 +9°C° 1.1 mm 6 mps 716 mmHg 86%
    02:00 +8°C° 1.1 mm 5 mps 716 mmHg 89%
    03:00 +8°C° 0.8 mm 5 mps 716 mmHg 89%
    04:00 +8°C° 0.8 mm 5 mps 716 mmHg 90%
    05:00 +8°C° 0.8 mm 6 mps 716 mmHg 90%
    06:00 +8°C° 0.5 mm 6 mps 717 mmHg 89%
    07:00 +8°C° 0.5 mm 5 mps 717 mmHg 87%
    08:00 +8°C° 0.5 mm 5 mps 718 mmHg 86%
    09:00 +8°C° 1.7 mm 4 mps 718 mmHg 85%
    10:00 +8°C° 1.7 mm 4 mps 718 mmHg 85%
    11:00 +9°C° 1.7 mm 3 mps 719 mmHg 84%
    12:00 +10°C° 0.6 mm 2 mps 719 mmHg 80%
    13:00 +10°C° 0.6 mm 2 mps 718 mmHg 76%
    14:00 +12°C° 0.6 mm 2 mps 718 mmHg 72%
    15:00 +12°C° 0.1 mm 2 mps 719 mmHg 72%
    16:00 +12°C° 0.1 mm 1 mps 719 mmHg 71%
    17:00 +12°C° 0.1 mm 1 mps 719 mmHg 71%
    18:00 +11°C° 0 mm 1 mps 719 mmHg 73%
    19:00 +10°C° 0 mm 2 mps 719 mmHg 74%
    20:00 +9°C° 0 mm 2 mps 720 mmHg 76%
    21:00 +9°C° 0 mm 2 mps 719 mmHg 75%
    22:00 +10°C° 0 mm 1 mps 719 mmHg 73%
    23:00 +9°C° 0 mm 1 mps 719 mmHg 71%

    5 June, Friday

    Time Temperature Precipitation Wind Pressure Humidity
    00:00 +9°C° 0 mm 1 mps 718 mmHg 73%
    01:00 +8°C° 0 mm 1 mps 718 mmHg 75%
    02:00 +8°C° 0 mm 1 mps 718 mmHg 77%
    03:00 +8°C° 0 mm 1 mps 717 mmHg 78%
    04:00 +8°C° 0 mm 1 mps 717 mmHg 78%
    05:00 +7°C° 0 mm 1 mps 717 mmHg 79%
    06:00 +8°C° 0 mm 1 mps 718 mmHg 75%
    07:00 +9°C° 0 mm 1 mps 718 mmHg 71%
    08:00 +9°C° 0 mm 1 mps 719 mmHg 68%
    09:00 +11°C° 0 mm 1 mps 719 mmHg 61%
    10:00 +13°C° 0 mm 1 mps 719 mmHg 54%
    11:00 +14°C° 0 mm 1 mps 719 mmHg 48%
    12:00 +15°C° 0 mm 1 mps 718 mmHg 46%
    13:00 +16°C° 0 mm 1 mps 717 mmHg 44%
    14:00 +18°C° 0 mm 1 mps 717 mmHg 41%
    15:00 +16°C° 0 mm 1 mps 717 mmHg 45%
    16:00 +16°C° 0 mm 1 mps 716 mmHg 48%
    17:00 +16°C° 0 mm 1 mps 716 mmHg 51%
    18:00 +14°C° 0 mm 1 mps 716 mmHg 55%
    19:00 +13°C° 0 mm 1 mps 716 mmHg 58%
    20:00 +12°C° 0 mm 1 mps 716 mmHg 62%
    21:00 +12°C° 0 mm 1 mps 716 mmHg 61%
    22:00 +11°C° 0 mm 1 mps 716 mmHg 60%
    23:00 +11°C° 0 mm 1 mps 716 mmHg 60%
    Show more